Sioux Falls, SD

2:01 PM CDT on March 26, 2017 (GMT -0500)
Foss

Weather History for KFSD - June, 2013

Change the Weather History Date:

Monday, June 17, 2013

  Actual Average Record
Temperature  
Mean Temperature 72 °F 68 °F  
Max Temperature 83 °F 80 °F 97 °F (1898)
Min Temperature 60 °F 57 °F 38 °F (1974)
Degree Days  
Heating Degree Days 0 1  
Month to date heating degree days 69 42  
Since 1 June heating degree days 69 42  
Since 1 July heating degree days 7884 7697  
Cooling Degree Days 7 5  
Month to date cooling degree days 31 55  
Year to date cooling degree days 73 91  
Since 1 June cooling degree days 31 55  
Growing Degree Days 21 (Base 50)    
Moisture  
Dew Point 53 °F    
Average Humidity 59    
Maximum Humidity 84    
Minimum Humidity 33    
Precipitation  
Precipitation 0.00 in 0.13 in 2.31 in (1956)
Month to date precipitation 2.79 2.26  
Year to date precipitation 15.10 11.59  
Snow  
Snow 0.00 in 0.00 in 0.00 in ()
Month to date snowfall 0.0 0.0  
Since 1 June snowfall 0.0 0.0  
Since 1 July snowfall 43.3 44.5  
Snow Depth 0.00 in    
Sea Level Pressure  
Sea Level Pressure 29.99 in    
Wind  
Wind Speed 9 mph (NW)    
Max Wind Speed 23 mph    
Max Gust Speed 29 mph    
Visibility 10 miles    
Events      
T = Trace of Precipitation, MM = Missing Value Source: NWS Daily Summary

Daily Weather History Graph

Daily Weather History Graph

Search for Another Location

Airport or City:

Trip Planner

Search our weather history database for the weather conditions in past years. The results will help you decide how hot, cold, wet, or windy it might be!

Date:

Astronomy

Jun. 17, 2013 Rise Set
Actual Time 5:45 AM CDT 9:10 PM CDT
Civil Twilight 5:09 AM CDT 9:46 PM CDT
Nautical Twilight 4:22 AM CDT 10:33 PM CDT
Astronomical Twilight 3:23 AM CDT 11:33 PM CDT
Moon 2:41 PM CDT (6/17) 1:31 AM CDT (6/17)
Length of Visible Light 16h 37m
Length of Day
15h 25m
First Quarter, 60% of the Moon is Illuminated
Jun 17
First Quarter
Jun 23
Full
Jun 29
Last Quarter
Jul 8
New
Jul 15
First Quarter

Hourly Weather History & Observations

Time (CDT) Temp. Dew Point Humidity Pressure Visibility Wind Dir Wind Speed Gust Speed Precip Events Conditions
12:56 AM 64.9 °F 55.9 °F 73% 29.96 in 10.0 mi WSW 3.5 mph - N/A   Clear
1:56 AM 64.0 °F 54.0 °F 70% 29.97 in 10.0 mi Calm Calm - N/A   Clear
2:56 AM 62.1 °F 55.0 °F 78% 29.97 in 10.0 mi WNW 3.5 mph - N/A   Clear
3:56 AM 61.0 °F 55.0 °F 81% 29.95 in 10.0 mi WNW 4.6 mph - N/A   Clear
4:56 AM 61.0 °F 55.9 °F 83% 29.94 in 10.0 mi WNW 6.9 mph - N/A   Partly Cloudy
5:56 AM 60.1 °F 55.9 °F 86% 29.97 in 10.0 mi WNW 8.1 mph - N/A   Scattered Clouds
6:56 AM 63.0 °F 57.0 °F 81% 29.98 in 10.0 mi WNW 3.5 mph - N/A   Partly Cloudy
7:56 AM 68.0 °F 55.9 °F 65% 29.99 in 10.0 mi North 5.8 mph - N/A   Partly Cloudy
8:56 AM 73.9 °F 55.9 °F 53% 29.99 in 10.0 mi Variable 4.6 mph - N/A   Partly Cloudy
9:56 AM 75.9 °F 51.1 °F 42% 30.00 in 10.0 mi North 10.4 mph - N/A   Scattered Clouds
10:56 AM 79.0 °F 50.0 °F 36% 30.01 in 10.0 mi WNW 9.2 mph - N/A   Mostly Cloudy
11:56 AM 80.1 °F 48.0 °F 32% 30.02 in 10.0 mi NW 12.7 mph 25.3 mph N/A   Mostly Cloudy
12:56 PM 80.1 °F 48.0 °F 32% 30.01 in 10.0 mi WNW 13.8 mph 21.9 mph N/A   Scattered Clouds
1:56 PM 81.0 °F 50.0 °F 34% 30.01 in 10.0 mi NW 12.7 mph 26.5 mph N/A   Scattered Clouds
2:56 PM 80.1 °F 50.0 °F 35% 30.00 in 10.0 mi WNW 19.6 mph 26.5 mph N/A   Mostly Cloudy
3:56 PM 80.1 °F 50.0 °F 35% 30.00 in 10.0 mi NNW 16.1 mph 24.2 mph N/A   Mostly Cloudy
4:56 PM 79.0 °F 51.1 °F 38% 29.99 in 10.0 mi WNW 12.7 mph 20.7 mph N/A   Mostly Cloudy
5:56 PM 80.1 °F 52.0 °F 38% 29.98 in 10.0 mi NNW 11.5 mph - N/A   Scattered Clouds
6:56 PM 79.0 °F 51.1 °F 38% 29.97 in 10.0 mi NNW 12.7 mph - N/A   Partly Cloudy
7:56 PM 77.0 °F 51.1 °F 40% 29.97 in 10.0 mi NW 11.5 mph - N/A   Partly Cloudy
8:56 PM 72.0 °F 52.0 °F 49% 29.98 in 10.0 mi NW 9.2 mph - N/A   Partly Cloudy
9:56 PM 66.9 °F 52.0 °F 59% 30.00 in 10.0 mi NNW 5.8 mph - N/A   Partly Cloudy
10:56 PM 64.9 °F 52.0 °F 63% 30.02 in 10.0 mi WNW 5.8 mph - N/A   Partly Cloudy
11:56 PM 63.0 °F 52.0 °F 67% 30.01 in 10.0 mi NW 6.9 mph - N/A   Partly Cloudy